RYR9782 GMTT-GMMD

Flight info

Callsign RYR9782
Flight time 0h 42m
Altitude 31000
Route MADOV UM240 FES UM372 DIDOV
Aircraft B38M/M-SADE3FGILRWY/SB1

Departure

Time 2026-05-07 12:41
Airport Tangier Ibn Battuta Airport (GMTT)

Arrival

Time 2026-05-07 13:23
Airport Beni Mellal Airport (GMMD)
Time Latitude Longitude Altitude Speed Heading
2026-05-07 12:26 35.72860 -5.91637 44 ft 0 kts 85°
2026-05-07 12:37 35.72857 -5.91627 41 ft 4 kts 126°
2026-05-07 12:37 35.72833 -5.91645 44 ft 5 kts 276°
2026-05-07 12:37 35.72865 -5.91688 43 ft 9 kts 315°
2026-05-07 12:38 35.72918 -5.91697 41 ft 9 kts 43°
2026-05-07 12:38 35.72938 -5.91626 44 ft 10 kts 96°
2026-05-07 12:38 35.72928 -5.91520 43 ft 17 kts 100°
2026-05-07 12:38 35.72905 -5.91423 47 ft 18 kts 96°
2026-05-07 12:39 35.72901 -5.91265 49 ft 19 kts 104°
2026-05-07 12:39 35.72883 -5.91048 51 ft 20 kts 96°
2026-05-07 12:39 35.72868 -5.90873 52 ft 21 kts 97°
2026-05-07 12:39 35.72848 -5.90686 54 ft 23 kts 97°
2026-05-07 12:40 35.72835 -5.90552 57 ft 24 kts 97°
2026-05-07 12:40 35.72817 -5.90352 60 ft 21 kts 94°
2026-05-07 12:40 35.72877 -5.90196 59 ft 22 kts 21°
2026-05-07 12:40 35.72994 -5.90265 54 ft 15 kts 278°
2026-05-07 12:41 35.73007 -5.90410 54 ft 20 kts 276°
2026-05-07 12:41 35.73045 -5.90821 48 ft 92 kts 277°
2026-05-07 12:41 35.73132 -5.91941 160 ft 158 kts 272°
2026-05-07 12:41 35.73245 -5.93355 1163 ft 167 kts 274°
2026-05-07 12:42 35.73409 -5.94749 2323 ft 170 kts 275°
2026-05-07 12:42 35.73600 -5.96283 2897 ft 193 kts 275°
2026-05-07 12:42 35.73810 -5.98033 3444 ft 222 kts 276°
2026-05-07 12:42 35.73976 -5.99950 4484 ft 219 kts 265°
2026-05-07 12:43 35.73577 -6.01724 5569 ft 219 kts 234°
2026-05-07 12:43 35.72414 -6.02957 6450 ft 229 kts 204°
2026-05-07 12:43 35.70835 -6.03244 7430 ft 233 kts 172°
2026-05-07 12:43 35.69349 -6.02409 8394 ft 245 kts 141°
2026-05-07 12:44 35.68418 -6.00598 9197 ft 261 kts 104°
2026-05-07 12:44 35.68241 -5.98402 10222 ft 262 kts 97°
2026-05-07 12:44 35.67966 -5.96137 10920 ft 272 kts 101°
2026-05-07 12:44 35.67649 -5.93825 11802 ft 276 kts 100°
2026-05-07 12:45 35.67335 -5.91478 12705 ft 281 kts 99°
2026-05-07 12:45 35.66746 -5.89133 13312 ft 296 kts 123°
2026-05-07 12:45 35.65320 -5.87265 13839 ft 309 kts 150°
2026-05-07 12:45 35.63327 -5.86145 14274 ft 324 kts 162°
2026-05-07 12:46 35.61187 -5.85082 14814 ft 339 kts 161°
2026-05-07 12:46 35.58993 -5.83981 15427 ft 350 kts 162°
2026-05-07 12:46 35.56694 -5.82829 16262 ft 354 kts 162°
2026-05-07 12:46 35.54414 -5.81689 17024 ft 360 kts 163°
2026-05-07 12:47 35.52073 -5.80518 17792 ft 366 kts 164°
2026-05-07 12:47 35.49700 -5.79331 18504 ft 371 kts 164°
2026-05-07 12:47 35.47291 -5.78126 19170 ft 375 kts 164°
2026-05-07 12:47 35.44862 -5.76913 19872 ft 379 kts 164°
2026-05-07 12:48 35.42407 -5.75689 20538 ft 383 kts 164°
2026-05-07 12:48 35.39908 -5.74551 21182 ft 385 kts 166°
2026-05-07 12:48 35.37373 -5.73420 21803 ft 389 kts 166°
2026-05-07 12:48 35.34811 -5.72270 22423 ft 392 kts 166°
2026-05-07 12:49 35.32274 -5.71129 23072 ft 395 kts 166°
2026-05-07 12:49 35.29676 -5.69961 23645 ft 400 kts 166°
2026-05-07 12:49 35.27045 -5.68778 24142 ft 404 kts 166°
2026-05-07 12:49 35.24394 -5.67587 24640 ft 408 kts 166°
2026-05-07 12:50 35.21712 -5.66382 25078 ft 412 kts 166°
2026-05-07 12:50 35.19007 -5.65170 25529 ft 415 kts 166°
2026-05-07 12:50 35.16283 -5.63948 26018 ft 419 kts 166°
2026-05-07 12:50 35.13539 -5.62718 26477 ft 422 kts 166°
2026-05-07 12:51 35.10763 -5.61475 26910 ft 427 kts 166°
2026-05-07 12:51 35.07964 -5.60223 27399 ft 429 kts 166°
2026-05-07 12:51 35.05149 -5.58965 27849 ft 433 kts 166°
2026-05-07 12:51 35.02305 -5.57694 28269 ft 437 kts 166°
2026-05-07 12:52 34.99438 -5.56414 28701 ft 440 kts 166°
2026-05-07 12:52 34.96551 -5.55119 29130 ft 444 kts 165°
2026-05-07 12:52 34.93751 -5.53580 29647 ft 448 kts 161°
2026-05-07 12:52 34.90920 -5.51997 30173 ft 447 kts 162°
2026-05-07 12:53 34.88082 -5.50436 30588 ft 447 kts 162°
2026-05-07 12:53 34.85238 -5.48883 30908 ft 449 kts 162°
2026-05-07 12:53 34.79435 -5.45723 30942 ft 465 kts 162°
2026-05-07 12:54 34.73480 -5.42488 30949 ft 469 kts 162°
2026-05-07 12:54 34.67526 -5.39259 30961 ft 469 kts 162°
2026-05-07 12:55 34.61564 -5.36031 30942 ft 468 kts 162°
2026-05-07 12:55 34.55620 -5.32817 30979 ft 467 kts 162°
2026-05-07 12:56 34.49689 -5.29616 30975 ft 469 kts 162°
2026-05-07 12:56 34.43720 -5.26399 30964 ft 470 kts 162°
2026-05-07 12:57 34.37745 -5.23183 30980 ft 470 kts 162°
2026-05-07 12:57 34.31754 -5.20054 30974 ft 467 kts 164°
2026-05-07 12:58 34.25709 -5.17171 30974 ft 467 kts 164°
2026-05-07 12:58 34.19670 -5.14263 30988 ft 467 kts 164°
2026-05-07 12:59 34.13673 -5.11378 30993 ft 467 kts 164°
2026-05-07 12:59 34.07642 -5.08480 30981 ft 466 kts 164°
2026-05-07 13:00 34.01612 -5.05587 30986 ft 466 kts 164°
2026-05-07 13:00 33.95483 -5.03489 30986 ft 448 kts 185°
2026-05-07 13:01 33.92431 -5.03812 31005 ft 435 kts 199°
2026-05-07 13:01 33.89616 -5.04968 30979 ft 421 kts 214°
2026-05-07 13:01 33.84657 -5.08602 30975 ft 416 kts 220°
2026-05-07 13:02 33.79924 -5.12528 30993 ft 415 kts 221°
2026-05-07 13:02 33.75211 -5.16562 30994 ft 415 kts 222°
2026-05-07 13:03 33.70515 -5.20615 30975 ft 415 kts 222°
2026-05-07 13:03 33.65829 -5.24659 30973 ft 415 kts 222°
2026-05-07 13:04 33.61134 -5.28704 30876 ft 412 kts 222°
2026-05-07 13:04 33.58833 -5.30686 30220 ft 412 kts 222°
2026-05-07 13:04 33.56500 -5.32692 29519 ft 411 kts 222°
2026-05-07 13:05 33.54172 -5.34693 28748 ft 412 kts 221°
2026-05-07 13:05 33.51841 -5.36696 27965 ft 413 kts 221°
2026-05-07 13:05 33.49502 -5.38704 27166 ft 414 kts 221°
2026-05-07 13:05 33.47146 -5.40726 26336 ft 417 kts 221°
2026-05-07 13:06 33.44770 -5.42762 25299 ft 424 kts 220°
2026-05-07 13:06 33.42360 -5.44823 24432 ft 427 kts 220°
2026-05-07 13:06 33.39938 -5.46894 23614 ft 428 kts 220°
2026-05-07 13:06 33.37531 -5.48950 22818 ft 420 kts 220°
2026-05-07 13:07 33.35183 -5.50955 22132 ft 409 kts 220°
2026-05-07 13:07 33.32913 -5.52893 21430 ft 401 kts 220°
2026-05-07 13:07 33.30661 -5.54813 20745 ft 394 kts 220°
2026-05-07 13:07 33.28452 -5.56696 20084 ft 387 kts 220°
2026-05-07 13:08 33.26281 -5.58545 19425 ft 380 kts 220°
2026-05-07 13:08 33.24141 -5.60366 18792 ft 374 kts 219°
2026-05-07 13:08 33.22031 -5.62161 18186 ft 369 kts 219°
2026-05-07 13:08 33.19956 -5.63925 17561 ft 363 kts 219°
2026-05-07 13:09 33.17921 -5.65655 16966 ft 356 kts 219°
2026-05-07 13:09 33.15920 -5.67355 16371 ft 351 kts 219°
2026-05-07 13:09 33.13969 -5.69010 15797 ft 346 kts 219°
2026-05-07 13:09 33.12021 -5.70662 15229 ft 341 kts 218°
2026-05-07 13:10 33.10096 -5.72294 14673 ft 337 kts 218°
2026-05-07 13:10 33.08195 -5.73906 14125 ft 333 kts 218°
2026-05-07 13:10 33.06324 -5.75489 13639 ft 327 kts 218°
2026-05-07 13:10 33.04479 -5.77051 13093 ft 322 kts 218°
2026-05-07 13:11 33.02665 -5.78585 12554 ft 318 kts 217°
2026-05-07 13:11 33.00897 -5.80081 12067 ft 312 kts 217°
2026-05-07 13:11 32.99120 -5.81582 11645 ft 305 kts 217°
2026-05-07 13:11 32.97439 -5.83004 11389 ft 296 kts 216°
2026-05-07 13:12 32.95777 -5.84406 11081 ft 290 kts 216°
2026-05-07 13:12 32.94151 -5.85780 10787 ft 284 kts 216°
2026-05-07 13:12 32.92529 -5.87147 10514 ft 280 kts 216°
2026-05-07 13:12 32.90972 -5.88461 10251 ft 277 kts 216°
2026-05-07 13:13 32.89400 -5.89785 9981 ft 276 kts 216°
2026-05-07 13:13 32.87835 -5.91103 9721 ft 275 kts 216°
2026-05-07 13:13 32.86272 -5.92419 9412 ft 274 kts 216°
2026-05-07 13:13 32.84717 -5.93729 9118 ft 274 kts 215°
2026-05-07 13:14 32.83159 -5.95041 8808 ft 273 kts 216°
2026-05-07 13:14 32.81604 -5.96347 8511 ft 274 kts 216°
2026-05-07 13:14 32.80050 -5.97654 8251 ft 273 kts 216°
2026-05-07 13:14 32.78496 -5.98960 7951 ft 272 kts 215°
2026-05-07 13:15 32.76967 -6.00245 7691 ft 266 kts 216°
2026-05-07 13:15 32.75490 -6.01485 7450 ft 260 kts 215°
2026-05-07 13:15 32.74016 -6.02688 7203 ft 254 kts 211°
2026-05-07 13:15 32.72467 -6.03681 6975 ft 251 kts 208°
2026-05-07 13:16 32.70928 -6.04659 6782 ft 250 kts 208°
2026-05-07 13:16 32.69400 -6.05641 6595 ft 247 kts 209°
2026-05-07 13:16 32.67915 -6.06603 6397 ft 240 kts 210°
2026-05-07 13:16 32.66471 -6.07543 6193 ft 233 kts 210°
2026-05-07 13:17 32.65065 -6.08459 5967 ft 228 kts 210°
2026-05-07 13:17 32.63697 -6.09352 5780 ft 221 kts 209°
2026-05-07 13:17 32.62360 -6.10227 5808 ft 220 kts 209°
2026-05-07 13:17 32.61031 -6.11095 5924 ft 221 kts 209°
2026-05-07 13:18 32.59676 -6.11982 6004 ft 222 kts 211°
2026-05-07 13:18 32.58335 -6.12910 5895 ft 223 kts 211°
2026-05-07 13:18 32.57002 -6.13834 5677 ft 220 kts 211°
2026-05-07 13:18 32.55681 -6.14749 5419 ft 219 kts 211°
2026-05-07 13:19 32.54368 -6.15657 5167 ft 218 kts 211°
2026-05-07 13:19 32.53067 -6.16555 4939 ft 215 kts 211°
2026-05-07 13:19 32.51874 -6.17565 4765 ft 205 kts 224°
2026-05-07 13:19 32.50889 -6.18747 4513 ft 199 kts 226°
2026-05-07 13:20 32.49939 -6.19897 4197 ft 197 kts 227°
2026-05-07 13:20 32.48985 -6.21049 3918 ft 185 kts 226°
2026-05-07 13:20 32.48140 -6.22066 3683 ft 168 kts 226°
2026-05-07 13:20 32.47349 -6.23015 3444 ft 153 kts 227°
2026-05-07 13:21 32.46629 -6.23878 3219 ft 144 kts 227°
2026-05-07 13:21 32.45935 -6.24715 2930 ft 142 kts 226°
2026-05-07 13:21 32.45239 -6.25548 2740 ft 142 kts 226°
2026-05-07 13:21 32.44534 -6.26392 2604 ft 147 kts 226°
2026-05-07 13:22 32.43808 -6.27267 2464 ft 149 kts 225°
2026-05-07 13:22 32.43075 -6.28150 2310 ft 153 kts 226°
2026-05-07 13:22 32.42320 -6.29041 2156 ft 154 kts 223°
2026-05-07 13:22 32.41567 -6.29936 1905 ft 152 kts 224°
2026-05-07 13:23 32.40850 -6.30815 1725 ft 145 kts 220°
2026-05-07 13:23 32.40199 -6.31567 1696 ft 108 kts 226°
2026-05-07 13:23 32.39808 -6.32048 1691 ft 61 kts 226°
2026-05-07 13:23 32.39592 -6.32310 1689 ft 35 kts 225°
2026-05-07 13:24 32.39455 -6.32475 1685 ft 20 kts 229°
2026-05-07 13:24 32.39469 -6.32618 1685 ft 17 kts 316°
2026-05-07 13:24 32.39556 -6.32708 1688 ft 15 kts 333°
2026-05-07 13:24 32.39611 -6.32754 1686 ft 0 kts 314°